Regional Weather Roundup
Issued by NWS Memphis, TN

Home | Current Version | Previous Version | Text Only | Print | Product List | Glossary On
Versions: 1 2 3 4 5 6 7 8 9 10 11 12 13 14 15 16 17 18 19 20 21 22 23 24 25 26 27 28 29 30 31 32 33 34 35 36 37 38 39 40 41 42 43 44 45 46 47 48 49 50
000
ASUS44 KMEG 281610
RWRMEG
MEMPHIS CWA HOURLY WEATHER ROUNDUP
NATIONAL WEATHER SERVICE MEMPHIS TN
1000 AM CST TUE FEB 28 2017

...WEST TENNESSEE...

CITY           SKY/WX    TMP DP  RH WIND       PRES   REMARKS
MEMPHIS INTL   CLOUDY    67  65  93 S15G22    30.00F
NWS MEMPHIS      N/A     65 N/A N/A MISG        N/A
JACKSON        LGT RAIN  64  62  93 S12G21    30.03S
BOLIVAR        CLOUDY    63  61  94 SE10      30.04S
SAVANNAH       CLOUDY    63  61  94 S9        30.07S
UNION CITY     CLOUDY    64  64 100 S12       29.97F
PARIS          CLOUDY    63  57  82 S14       30.01F
HUNTINGDON     CLOUDY    66  61  82 S15G25    30.01S


...EASTERN ARKANSAS...

CITY           SKY/WX    TMP DP  RH WIND       PRES   REMARKS
JONESBORO      CLOUDY    66  64  93 SW17      29.95F
WEST MEMPHIS   CLOUDY    67  65  93 S18G26    29.98F
BATESVILLE     CLOUDY    63  61  94 SW3       29.95S
WALNUT RIDGE   CLOUDY    63  61  94 S15       29.94R
BLYTHEVILLE    CLOUDY    66  64  93 S17       29.96F
SEARCY         CLOUDY    65  65 100 S10       29.97F FOG
STUTTGART      CLOUDY    70  61  73 S14       29.99R
PINE BLUFF     CLOUDY    69  66  90 S14       29.99S
MONTICELLO     CLOUDY    72  67  84 S10       30.00F


...NORTH MISSISSIPPI...

CITY           SKY/WX    TMP DP  RH WIND       PRES   REMARKS
TUPELO         CLOUDY    62  60  93 S12       30.10S
OXFORD         CLOUDY    63  63 100 S12G17    30.08S
BATESVILLE     PTSUNNY   67  64  88 S10       30.05S
OLIVE BRANCH   CLOUDY   N/A N/A N/A S14       30.01S
TUNICA         LGT RAIN  64  63  94 S14G20    30.01F
CORINTH        CLOUDY    64  61  88 S13       30.07R
GREENWOOD      TSTM      68  64  87 SW15G26   30.08R VSB 3/4
COLUMBUS       CLOUDY    64  64 100 S9        30.11S FOG
STARKVILLE     CLOUDY    63  63 100 S6        30.13S
GOLDEN TRIANGL CLOUDY    63  59  88 S14       30.08R FOG


...SOUTHEAST MISSOURI...

CITY           SKY/WX    TMP DP  RH WIND       PRES   REMARKS
KENNETT        CLOUDY    66  64  94 S16       29.94S FOG
MALDEN         CLOUDY    64  63  94 S13G23    29.95S FOG
WEST PLAINS    CLOUDY    65  60  84 S14G21    29.89F
POPLAR BLUFF   CLOUDY    63  62  97 S10       29.92S FOG
CAPE GIRARDEAU LGT RAIN  62  60  93 S18       29.92F FOG


...NORTHWEST ALABAMA...

CITY           SKY/WX    TMP DP  RH WIND       PRES   REMARKS
MUSCLE SHOALS    N/A    N/A N/A N/A MISG      30.13S


...MIDDLE TENNESSEE...

CITY           SKY/WX    TMP DP  RH WIND       PRES   REMARKS
NASHVILLE      LGT RAIN  61  58  90 SW10G22   30.09R
CLARKSVILLE    CLOUDY    64  58  80 S14G25    30.03S
COLUMBIA       CLOUDY   N/A N/A N/A S10       30.11R


...WESTERN KENTUCKY...

CITY           SKY/WX    TMP DP  RH WIND       PRES   REMARKS
PADUCAH        LGT RAIN  63  59  87 S10G18    29.95F
FORT CAMPBELL  LGT RAIN  64  61  88 S17G23    30.01F


...CENTRAL ARKANSAS...

CITY           SKY/WX    TMP DP  RH WIND       PRES   REMARKS
LITTLE ROCK    CLOUDY    67  67 100 S12       29.97S FOG


SKY/WX REPORTED AS FAIR MEANS FEW OR NO CLOUDS BELOW
12 THOUSAND FEET.





USA.gov is the U.S. government's official web portal to all federal, state and local government web resources and services.